Regional Weather Roundup
Issued by NWS

Home | Current Version | Previous Version | Graphics & Text | Print | Product List | Glossary On
Versions: 1 2 3 4 5 6 7 8 9 10 11 12 13 14 15 16 17 18 19 20 21 22 23 24 25 26 27 28 29 30 31 32 33 34 35 36 37 38 39 40 41 42 43 44 45 46 47 48 49 50
000
ASUS44 KMEG 200710
RWRTN
TENNESSEE HOURLY STATE WEATHER ROUNDUP
NATIONAL WEATHER SERVICE MEMPHIS TN
200 AM CDT SUN AUG 20 2017

TNZ002-004-019-021-049-052-054-088>092-200800-
WEST TENNESSEE

CITY           SKY/WX    TMP DP  RH WIND       PRES   REMARKS
MEMPHIS INTL   CLOUDY    80  76  87 S5        29.99S
NWS MEMPHIS      N/A     78 N/A N/A MISG        N/A
JACKSON        PTCLDY    70  70 100 CALM      30.00S FOG
DYERSBURG      CLOUDY    72  70  94 SE3       30.00S FOG
SOMERVILLE     CLEAR     73  73 100 CALM      29.99S
COVINGTON      CLEAR     72  72 100 CALM      29.99S FOG
UNION CITY     CLEAR     70  68  94 CALM      29.98F
BOLIVAR        MOCLDY    73  72  94 CALM      30.00S FOG
PARIS          CLEAR     68  68 100 CALM      30.00S
HUNTINGDON     CLEAR     70  70 100 CALM      30.00S
SELMER         PTCLDY    73  72  94 CALM      30.00F
SAVANNAH       PTCLDY    72  72 100 CALM      30.00S FOG
$$

TNZ008-025-027-028-033-062-065-066-200800-
NORTH MIDDLE TENNESSEE

CITY           SKY/WX    TMP DP  RH WIND       PRES   REMARKS
NASHVILLE      PTCLDY    75  71  87 CALM      30.02S
PORTLAND       CLEAR     70  68  94 S3        30.02S
CLARKSVILLE    PTCLDY    70  68  93 CALM      30.01S
SMYRNA         CLEAR     72  71  97 CALM      30.03S
COOKEVILLE       N/A     66  66 100 CALM      30.05R
GALLATIN       CLEAR     72  70  94 CALM      30.04S
CROSSVILLE     CLEAR     64  63  96 CALM      30.10F
$$

TNZ061-075-076-078-094-096-097-200800-
SOUTH MIDDLE TENNESSEE

CITY           SKY/WX    TMP DP  RH WIND       PRES   REMARKS
FAYETTEVILLE   MOCLDY    73  70  88 CALM      30.03S
TULLAHOMA      CLEAR     68  64  88 CALM      30.06S
WINCHESTER     CLEAR     70  66  88 CALM      30.05S
MCMINNVILLE    PTCLDY    68  68 100 CALM      30.05S
COLUMBIA       CLEAR     72  72 100 CALM      30.01R
$$

TNZ017-018-042-046-047-200800-
NORTHEAST TENNESSEE

CITY           SKY/WX    TMP DP  RH WIND       PRES   REMARKS
TRI CITIES     CLEAR     64  64 100 CALM      30.09F
ELIZABETHTON   CLEAR     66  63  88 NE5       30.11S
$$

TNZ012-013-036-069-073-074-200800-
CENTRAL EAST TENNESSEE

CITY           SKY/WX    TMP DP  RH WIND       PRES   REMARKS
KNOXVILLE      CLEAR     68  65  90 NE3       30.04F
OAK RIDGE      CLEAR     70  67  90 CALM      30.06S
DOWNTOWN KNOXV   N/A     70  68  94 CALM      30.04S FOG
GATLINBURG     CLEAR     66  63  88 CALM      30.06S
MORRISTOWN     CLEAR     70  66  88 CALM      30.06S
JACKSBORO      CLEAR     68  68 100 CALM      30.10S FOG
$$

TNZ083-085-099-200800-
SOUTHEAST TENNESSEE

CITY           SKY/WX    TMP DP  RH WIND       PRES   REMARKS
CHATTANOOGA    CLEAR     72  68  87 CALM      30.04F
DAYTON         MOSUNNY   70  70 100 CALM      30.03S FOG
$$

SKY/WX REPORTED AS FAIR MEANS FEW OR NO CLOUDS BELOW
12 THOUSAND FEET.





USA.gov is the U.S. government's official web portal to all federal, state and local government web resources and services.